When you browse on this site, cookies collect data to enhance your experience and personalize the content and advertising you see.
Visit our Privacy Policy to learn more. By continuing to use the site, you agree to this use of cookies and data.
  • Em Portugal
  • Lista de países
  • Para 7 dias
  • Temperatura da água
  • Mapas de satélite
  • Mapa do tempo
  • Widgets de tempo
  • user-avatar
    Iniciar Sessão

    Previsão horária em Planta

    Hoje, 23 Fevereiro, Sábado

    Tempo Temperatura Precipitação Vento Pressão Humidade
    00:00 -7°C° 0 mm 5 m/s 766 mmHg 48%
    01:00 -7°C° 0 mm 5 m/s 766 mmHg 51%
    02:00 -8°C° 0 mm 5 m/s 767 mmHg 55%
    03:00 -8°C° 0 mm 4 m/s 767 mmHg 56%
    04:00 -8°C° 0 mm 4 m/s 767 mmHg 58%
    05:00 -7°C° 0 mm 3 m/s 767 mmHg 60%
    06:00 -7°C° 0 mm 3 m/s 767 mmHg 60%
    07:00 -7°C° 0 mm 2 m/s 768 mmHg 60%
    08:00 -7°C° 0 mm 2 m/s 768 mmHg 61%
    09:00 -6°C° 0 mm 2 m/s 768 mmHg 55%
    10:00 -5°C° 0 mm 2 m/s 768 mmHg 50%
    11:00 -2°C° 0 mm 1 m/s 768 mmHg 44%
    12:00 -3°C° 0 mm 2 m/s 768 mmHg 41%
    13:00 -2°C° 0 mm 2 m/s 768 mmHg 37%
    14:00 -2°C° 0 mm 2 m/s 768 mmHg 34%
    15:00 -2°C° 0 mm 2 m/s 767 mmHg 35%
    16:00 -2°C° 0 mm 3 m/s 767 mmHg 36%
    17:00 -2°C° 0 mm 3 m/s 766 mmHg 37%
    18:00 -2°C° 0 mm 3 m/s 766 mmHg 39%
    19:00 -2°C° 0 mm 3 m/s 766 mmHg 42%
    20:00 -3°C° 0 mm 4 m/s 766 mmHg 44%
    21:00 -3°C° 0 mm 4 m/s 765 mmHg 43%
    22:00 -3°C° 0 mm 4 m/s 765 mmHg 42%
    23:00 -3°C° 0 mm 4 m/s 765 mmHg 41%

    Amanhã, 24 Fevereiro, Domingo

    Tempo Temperatura Precipitação Vento Pressão Humidade
    00:00 -3°C° 0 mm 4 m/s 765 mmHg 40%
    01:00 -3°C° 0 mm 4 m/s 764 mmHg 39%
    02:00 -3°C° 0 mm 4 m/s 764 mmHg 38%
    03:00 -3°C° 0 mm 4 m/s 764 mmHg 38%
    04:00 -3°C° 0 mm 4 m/s 763 mmHg 39%
    05:00 -3°C° 0 mm 4 m/s 763 mmHg 40%
    06:00 -4°C° 0 mm 3 m/s 763 mmHg 42%
    07:00 -4°C° 0 mm 3 m/s 762 mmHg 44%
    08:00 -4°C° 0 mm 3 m/s 762 mmHg 46%
    09:00 -4°C° 0 mm 3 m/s 762 mmHg 46%
    10:00 -2°C° 0 mm 3 m/s 762 mmHg 47%
    11:00 -2°C° 0 mm 3 m/s 761 mmHg 47%
    12:00 -1°C° 0 mm 3 m/s 761 mmHg 48%
    13:00 0°C° 0 mm 3 m/s 761 mmHg 49%
    14:00 0°C° 0 mm 3 m/s 761 mmHg 50%
    15:00 0°C° 0 mm 3 m/s 761 mmHg 53%
    16:00 0°C° 0 mm 3 m/s 760 mmHg 56%
    17:00 +1°C° 0 mm 2 m/s 760 mmHg 59%
    18:00 +1°C° 0 mm 2 m/s 760 mmHg 61%
    19:00 +1°C° 0 mm 2 m/s 760 mmHg 64%
    20:00 -1°C° 0 mm 2 m/s 760 mmHg 66%
    21:00 -1°C° 0 mm 3 m/s 760 mmHg 69%
    22:00 -1°C° 0 mm 3 m/s 759 mmHg 73%
    23:00 -1°C° 0 mm 3 m/s 759 mmHg 76%

    Depois de amanhã, 25 Fevereiro, Segunda-feira

    Tempo Temperatura Precipitação Vento Pressão Humidade
    00:00 -1°C° 0 mm 3 m/s 759 mmHg 81%
    01:00 -1°C° 0 mm 3 m/s 759 mmHg 86%
    02:00 -1°C° 0 mm 3 m/s 759 mmHg 91%
    03:00 -1°C° 0 mm 3 m/s 759 mmHg 93%
    04:00 -1°C° 0 mm 3 m/s 759 mmHg 94%
    05:00 0°C° 0 mm 3 m/s 759 mmHg 96%
    06:00 -1°C° 0 mm 3 m/s 759 mmHg 96%
    07:00 -1°C° 0 mm 3 m/s 759 mmHg 96%
    08:00 -1°C° 0 mm 2 m/s 759 mmHg 96%
    09:00 0°C° 0 mm 3 m/s 759 mmHg 89%
    10:00 +1°C° 0 mm 3 m/s 759 mmHg 82%
    11:00 +3°C° 0 mm 3 m/s 759 mmHg 75%
    12:00 +3°C° 0 mm 3 m/s 759 mmHg 73%
    13:00 +4°C° 0 mm 4 m/s 759 mmHg 71%
    14:00 +5°C° 0 mm 4 m/s 758 mmHg 69%
    15:00 +4°C° 0 mm 4 m/s 758 mmHg 74%
    16:00 +3°C° 0 mm 4 m/s 757 mmHg 80%
    17:00 +2°C° 0 mm 5 m/s 757 mmHg 85%
    18:00 +1°C° 0 mm 5 m/s 757 mmHg 87%
    19:00 0°C° 0 mm 5 m/s 757 mmHg 90%
    20:00 -1°C° 0 mm 6 m/s 757 mmHg 92%
    21:00 -1°C° 0 mm 5 m/s 757 mmHg 93%
    22:00 -1°C° 0 mm 4 m/s 756 mmHg 93%
    23:00 -2°C° 0 mm 4 m/s 756 mmHg 94%

    26 Fevereiro, Terça-feira

    Tempo Temperatura Precipitação Vento Pressão Humidade
    00:00 -2°C° 0 mm 4 m/s 756 mmHg 94%
    01:00 -1°C° 0 mm 3 m/s 756 mmHg 95%
    02:00 -1°C° 0 mm 3 m/s 756 mmHg 95%
    03:00 -1°C° 0 mm 3 m/s 755 mmHg 94%
    04:00 -1°C° 0 mm 3 m/s 755 mmHg 93%
    05:00 -1°C° 0 mm 3 m/s 754 mmHg 92%
    06:00 -2°C° 0 mm 4 m/s 754 mmHg 90%
    07:00 -2°C° 0 mm 4 m/s 753 mmHg 88%
    08:00 -2°C° 0 mm 4 m/s 753 mmHg 87%
    09:00 -1°C° 0 mm 5 m/s 753 mmHg 87%
    10:00 -1°C° 0 mm 6 m/s 752 mmHg 88%
    11:00 +1°C° 0 mm 6 m/s 752 mmHg 89%
    12:00 +2°C° 0 mm 6 m/s 751 mmHg 81%
    13:00 +4°C° 0 mm 7 m/s 751 mmHg 74%
    14:00 +5°C° 0 mm 7 m/s 751 mmHg 66%
    15:00 +5°C° 0 mm 7 m/s 751 mmHg 66%
    16:00 +5°C° 0 mm 6 m/s 751 mmHg 65%
    17:00 +4°C° 0 mm 6 m/s 751 mmHg 65%
    18:00 +3°C° 0 mm 6 m/s 751 mmHg 69%
    19:00 +3°C° 0 mm 5 m/s 752 mmHg 73%
    20:00 +2°C° 0 mm 5 m/s 752 mmHg 77%
    21:00 +1°C° 0 mm 5 m/s 753 mmHg 80%
    22:00 0°C° 0 mm 4 m/s 753 mmHg 82%
    23:00 0°C° 0 mm 4 m/s 753 mmHg 85%

    27 Fevereiro, Quarta-feira

    Tempo Temperatura Precipitação Vento Pressão Humidade
    00:00 -1°C° 0 mm 4 m/s 753 mmHg 87%
    01:00 0°C° 0 mm 3 m/s 754 mmHg 90%
    02:00 0°C° 0 mm 3 m/s 754 mmHg 92%
    03:00 -1°C° 0 mm 3 m/s 753 mmHg 92%
    04:00 -1°C° 0 mm 3 m/s 753 mmHg 93%
    05:00 -1°C° 0 mm 3 m/s 753 mmHg 93%
    06:00 -1°C° 0 mm 3 m/s 753 mmHg 92%
    07:00 -1°C° 0 mm 3 m/s 753 mmHg 90%
    08:00 -1°C° 0 mm 3 m/s 752 mmHg 88%
    09:00 +1°C° 0 mm 3 m/s 752 mmHg 80%
    10:00 +2°C° 0 mm 3 m/s 751 mmHg 73%
    11:00 +4°C° 0 mm 4 m/s 750 mmHg 65%
    12:00 +5°C° 0 mm 4 m/s 750 mmHg 65%
    13:00 +5°C° 0 mm 5 m/s 749 mmHg 65%
    14:00 +6°C° 0 mm 5 m/s 748 mmHg 65%
    15:00 +6°C° 0 mm 5 m/s 747 mmHg 69%
    16:00 +6°C° 0 mm 5 m/s 747 mmHg 72%
    17:00 +6°C° 0 mm 5 m/s 746 mmHg 76%
    18:00 +5°C° 0 mm 5 m/s 746 mmHg 80%
    19:00 +3°C° 0 mm 5 m/s 745 mmHg 84%
    20:00 +3°C° 0 mm 5 m/s 745 mmHg 87%
    21:00 +2°C° 0 mm 5 m/s 745 mmHg 85%
    22:00 +2°C° 0 mm 5 m/s 744 mmHg 82%
    23:00 +2°C° 0 mm 5 m/s 744 mmHg 80%

    28 Fevereiro, Quinta-feira

    Tempo Temperatura Precipitação Vento Pressão Humidade
    00:00 +2°C° 0 mm 5 m/s 743 mmHg 78%
    01:00 +1°C° 0 mm 5 m/s 743 mmHg 76%
    02:00 +1°C° 0 mm 5 m/s 742 mmHg 74%
    03:00 +1°C° 0 mm 5 m/s 742 mmHg 72%
    04:00 +1°C° 0 mm 5 m/s 742 mmHg 71%
    05:00 0°C° 0 mm 5 m/s 741 mmHg 70%
    06:00 0°C° 0 mm 5 m/s 741 mmHg 72%
    07:00 0°C° 0 mm 5 m/s 741 mmHg 73%
    08:00 0°C° 0 mm 5 m/s 741 mmHg 75%
    09:00 +1°C° 0 mm 6 m/s 741 mmHg 71%
    10:00 +2°C° 0 mm 7 m/s 741 mmHg 67%
    11:00 +3°C° 0 mm 7 m/s 741 mmHg 64%
    12:00 +4°C° 0 mm 8 m/s 740 mmHg 60%
    13:00 +4°C° 0 mm 8 m/s 740 mmHg 56%
    14:00 +5°C° 0 mm 8 m/s 740 mmHg 52%
    15:00 +5°C° 0 mm 8 m/s 740 mmHg 54%
    16:00 +4°C° 0 mm 8 m/s 740 mmHg 55%
    17:00 +4°C° 0 mm 7 m/s 740 mmHg 56%
    18:00 +3°C° 0 mm 7 m/s 741 mmHg 59%
    19:00 +3°C° 0 mm 7 m/s 741 mmHg 62%
    20:00 +2°C° 0 mm 7 m/s 742 mmHg 65%
    21:00 0°C° 0 mm 7 m/s 742 mmHg 67%
    22:00 -1°C° 0 mm 6 m/s 742 mmHg 69%
    23:00 -2°C° 0 mm 6 m/s 742 mmHg 71%
    Mostrar mais